Location: Invercargill
(46.4000°S, 168.3500°E)
Time: 19:29:10
(UTC+12:00)

Cosmos 1076 Rocket - Pass Details

Date: 14 May 2021
Orbit: 588 x 613 km, 82.5° (Epoch: 15 June)

Event Time Altitude Azimuth Distance (km) Brightness Sun altitude
Rises 18:44:51 0° 7° (N) 2,825 7.0 -13.7°
Reaches altitude 10° 18:47:05 10° 13° (NNE) 1,936 6.1 -14.1°
Maximum altitude 18:51:12 48° 87° (E) 799 3.7 -14.8°
Drops below altitude 10° 18:55:24 10° 160° (SSE) 1,977 5.8 -15.5°
Enters shadow 18:56:31 - 163° (SSE) 2,419 6.3 -15.7°
